Flag for Germany Weather past 2 weeks in Norden, Lower Saxony, Germany

Now
80 °F

Passing clouds.


Feels Like: 82 °F
Forecast: 61 / 69 °F
Wind: 6 mph from Northeast

Location: Norderney

Current Time: Jul 4, 2015 at 2:17:09 PM

Latest Report: Jul 4, 2015 at 2:00 PM


Visibility: 7 mi

Pressure: 30.03 "Hg

Humidity: 66%

Dew point: 67 °F

Location of NordenLocation

Historic Weather in Norden — Graph

°F

Norden temperature yesterday

Maximum temperature yesterday: 72 °F (at 11:00 AM)
Minimum temperature yesterday: 65 °F (at 11:00 PM)
Average temperature yesterday: 68 °F

Past Weeks' High & Low Weather Summary

 TemperatureHumidityPressure
High92 °F (Jul 2, 6:00 PM)96% (Jun 21, 5:00 PM)30.29 "Hg (Jun 21, 5:00 PM)
Low52 °F (Jun 21, 4:00 AM)37% (Jul 1, 6:00 PM)29.67 "Hg (Jun 22, 8:00 PM)
Average62 °F77%30.06 "Hg
* Reported Jun 19 1:00 PM — Jul 4 1:00 PM, Norden, Weather by CustomWeather, © 2015

Note: Actual official high and low records may vary slightly from our data, if they occured in-between our weather recording intervals... More about our weather records

Advertising

Norden weather history for previous 24 hours

 ConditionsComfort  
Time TempWeatherWind HumidityBarometerVisibility
1:00 PM
Sat, Jul 4
78 °FOvercast.6 mph69%30.06 "Hg8 mi
12:00 PM80 °FPartly sunny.3 mph63%30.07 "Hg12 mi
11:00 AM79 °FScattered clouds.6 mph64%30.06 "Hg15 mi
10:00 AM78 °FPartly sunny.6 mph64%30.08 "Hg13 mi
9:00 AM74 °FSunny.5 mph71%30.10 "Hg14 mi
8:00 AM71 °FPassing clouds.5 mph79%30.11 "Hg10 mi
7:00 AM68 °FSunny.5 mph89%30.12 "Hg6 mi
6:00 AM66 °FFog.5 mph92%30.14 "Hg3 mi
5:00 AM64 °FClear.5 mph89%30.16 "Hg5 mi
4:00 AM64 °FClear.6 mph90%30.17 "Hg6 mi
3:00 AM63 °FFog.6 mph92%30.19 "Hg4 mi
2:00 AM64 °FFog.6 mph92%30.22 "Hg4 mi
1:00 AM64 °FFog.6 mph91%30.23 "Hg4 mi
12:00 AM65 °FPassing clouds.5 mph90%30.25 "Hg5 mi
11:00 PM
Fri, Jul 3
65 °FPassing clouds.5 mph92%30.25 "Hg5 mi
10:00 PM66 °FPassing clouds.2 mph89%30.25 "Hg8 mi
9:00 PM69 °FPassing clouds.3 mph80%30.25 "Hg16 mi
8:00 PM70 °FSunny.5 mph78%30.26 "Hg22 mi
7:00 PM71 °FSunny.6 mph76%30.26 "Hg16 mi
6:00 PM69 °FSunny.6 mph81%30.28 "Hg9 mi
5:00 PM68 °FSunny.5 mph84%30.29 "Hg9 mi
4:00 PM71 °FPassing clouds.6 mph79%30.29 "Hg9 mi
3:00 PM70 °FSunny.6 mph82%30.29 "Hg9 mi
2:00 PM68 °FSunny.7 mph84%30.29 "Hg8 mi
Weather by CustomWeather, © 2015

See weather overviewHow to use our weather pages